Location: Baix
(44.7118°N, 4.7648°E)
Time: 04:28:10
(UTC+00:00)

Cosmos 1898 Rocket - Visible Passes

Search period start: 26 November 2020 00:00
Search period end: 06 December 2020 00:00
Orbit: 753 x 784 km, 74.0° (Epoch: 25 November)

Date Brightness Start Highest point End Pass type
(mag) Time Alt. Az. Time Alt. Az. Time Alt. Az.
26 Nov 4.8 04:55:48 10° S 05:00:47 43° ESE 05:05:50 10° NNE visible
26 Nov 7.1 17:07:11 10° W 17:08:09 10° W 17:09:06 10° WSW visible
27 Nov 5.7 04:19:46 10° SSE 04:24:06 26° E 04:28:30 10° NE visible
27 Nov 3.9 06:00:53 10° SW 06:05:57 44° WNW 06:11:03 10° N visible
28 Nov 6.3 03:44:25 10° SE 03:47:32 16° E 03:50:40 10° ENE visible
28 Nov 3.4 05:23:40 10° SSW 05:28:57 71° WNW 05:34:19 10° NNE visible
29 Nov 3.7 04:46:48 10° S 04:52:04 72° ESE 04:57:24 10° NNE visible
30 Nov 4.6 04:10:19 10° S 04:15:17 43° ESE 04:20:20 10° NNE visible
30 Nov 4.4 05:52:58 10° WSW 05:57:32 28° WNW 06:02:08 10° N visible
01 Dec 5.5 03:34:17 10° SSE 03:38:37 26° E 03:43:00 10° NE visible
01 Dec 3.8 05:15:22 10° SW 05:20:27 44° WNW 05:25:34 10° N visible
02 Dec 6.1 03:01:23 15° ESE 03:02:03 16° E 03:05:08 10° ENE visible
02 Dec 3.4 04:41:49 45° SW 04:43:27 72° WNW 04:48:49 10° NNE visible
02 Dec 5.3 06:24:17 10° WNW 06:26:34 13° NW 06:28:51 10° NNW visible
03 Dec 3.9 04:07:28 58° NE 04:07:28 58° NE 04:11:54 10° NNE visible
03 Dec 4.8 05:47:51 17° WNW 05:49:13 19° NW 05:53:00 10° N visible
04 Dec 5.5 03:32:31 24° NE 03:32:31 24° NE 03:34:49 10° NNE visible
04 Dec 4.5 05:12:52 27° NW 05:12:52 27° NW 05:16:39 10° N visible
05 Dec 6.4 02:57:14 11° NE 02:57:14 11° NE 02:57:28 10° NE visible
05 Dec 4.9 04:37:34 26° N 04:37:34 26° N 04:40:04 10° N visible
